DW8454 Weather Reports


Display with metric or nautical units.
time (UTC)temp
F
wind
direction
speed
MPH
gust
MPH
rain 1hr
in
rain 24hr
in
rain mn
in
humidity
%
barometer
mb
20260503180046 61 267 0.0 0.0 0.00 0.00 0.00 44 1013.4
20260503175045 61 225 0.0 0.0 0.00 0.00 0.00 42 1013.6
20260503174102 62 245 0.0 0.0 0.00 0.00 0.00 44 1013.7
20260503173103 61 246 0.0 0.0 0.00 0.00 0.00 44 1013.9
20260503172116 61 290 0.0 0.0 0.00 0.00 0.00 44 1014.0
20260503171113 60 256 0.0 0.0 0.00 0.00 0.00 47 1014.1
20260503150913 56 286 0.0 0.0 0.00 0.00 0.00 50 1015.2
20260503130635 47 244 0.0 0.0 0.00 0.00 0.00 59 1016.0
20260503110504 37 201 0.0 0.0 0.00 0.00 0.00 78 1015.9
20260503080803 37 205 0.0 0.0 0.00 0.00 0.00 81 1015.7
20260503072528 38 205 0.0 0.0 0.00 0.00 0.00 83 1015.7
20260503071533 38 205 0.0 0.0 0.00 0.00 0.00 83 1015.7
20260503070531 38 205 0.0 0.0 0.00 0.00 0.00 83 1015.7
20260503060330 39 195 0.0 0.0 0.00 0.00 0.00 82 1015.9
20260503054250 39 200 0.0 0.0 0.00 0.01 0.00 81 1016.1
20260503053222 39 196 0.0 0.0 0.00 0.43 0.00 81 1016.1
20260503051054 39 202 0.0 0.0 0.00 0.43 0.00 80 1016.1
20260503050030 39 197 0.0 0.0 0.00 0.43 0.00 79 1016.2
20260503045037 40 197 0.0 0.0 0.00 0.43 0.00 78 1016.2
20260503044058 40 197 0.0 0.0 0.00 0.43 0.00 77 1016.3
20260503043053 40 197 0.0 0.0 0.00 0.43 0.00 76 1016.3
20260503042038 41 197 0.0 0.0 0.00 0.43 0.00 75 1016.3
20260503041057 41 197 0.0 0.0 0.00 0.43 0.00 75 1016.3
20260503031554 43 204 0.0 0.0 0.00 0.43 0.43 70 1016.5
20260503024326 43 198 0.0 0.0 0.00 0.43 0.43 68 1016.7
20260503023324 43 185 0.0 0.0 0.00 0.43 0.43 67 1016.7
20260503022316 44 192 0.0 0.0 0.00 0.43 0.43 66 1016.8
20260503021313 44 204 0.0 0.0 0.00 0.43 0.43 66 1016.7
20260503020331 44 197 0.0 0.0 0.00 0.43 0.43 65 1016.7
20260503015347 44 194 0.0 0.0 0.00 0.43 0.43 65 1016.7
20260503014337 44 197 0.0 0.0 0.00 0.43 0.43 64 1016.7
20260503013400 44 197 0.0 0.0 0.00 0.43 0.43 65 1016.7
20260503012423 44 197 0.0 0.0 0.00 0.43 0.43 64 1016.6
20260503011406 43 254 0.0 0.0 0.00 0.43 0.43 77 1016.6
20260503010344 43 254 0.0 0.0 0.00 0.43 0.43 72 1016.5
20260503005409 43 279 0.0 0.0 0.00 0.43 0.43 70 1016.6
20260503004405 43 280 0.0 0.0 0.00 0.43 0.43 70 1016.5
20260503003409 43 280 0.0 0.0 0.00 0.43 0.43 69 1016.4
20260503002429 43 281 0.0 0.0 0.00 0.43 0.43 70 1016.4
20260503001436 43 284 0.0 0.0 0.00 0.43 0.43 67 1016.5
20260503000447 43 271 0.0 0.0 0.00 0.43 0.43 67 1016.4
20260502235451 43 309 0.0 0.0 0.00 0.43 0.43 66 1016.4
20260502234457 43 309 0.0 0.0 0.00 0.43 0.43 66 1016.4
20260502232338 43 304 0.0 0.0 0.00 0.43 0.43 65 1016.4
20260502231312 43 331 0.0 0.0 0.00 0.43 0.43 68 1016.4
20260502230315 43 306 0.0 0.0 0.00 0.43 0.43 67 1016.5
20260502225250 44 309 0.0 0.0 0.00 0.43 0.43 66 1016.5
20260502224245 44 309 0.0 7.0 0.00 0.43 0.43 64 1016.5
20260502222201 43 305 0.0 0.0 0.00 0.43 0.43 60 1016.6
20260502221210 45 309 0.0 0.0 0.00 0.43 0.43 58 1016.6
20260502220223 46 315 0.0 0.0 0.00 0.43 0.43 59 1016.6
20260502215247 46 324 0.0 0.0 0.00 0.43 0.43 61 1016.6
20260502214311 46 302 0.0 0.0 0.00 0.43 0.43 59 1016.6
20260502213250 46 318 0.0 0.0 0.00 0.43 0.43 59 1016.5
20260502212251 46 296 0.0 0.0 0.00 0.43 0.43 60 1016.6
20260502211314 46 303 0.0 0.0 0.00 0.43 0.43 61 1016.5
20260502210253 45 279 0.0 0.0 0.00 0.43 0.43 63 1016.6
20260502205310 45 290 0.0 0.0 0.00 0.43 0.43 64 1016.6
20260502204312 45 23 0.0 0.0 0.00 0.43 0.43 65 1016.7
20260502203253 44 276 0.0 0.0 0.00 0.43 0.43 66 1016.7
20260502201121 44 325 0.0 0.0 0.00 0.43 0.43 65 1016.9
20260502200057 44 314 0.0 0.0 0.00 0.43 0.43 65 1016.9
20260502195108 44 322 0.0 0.0 0.00 0.43 0.43 64 1017.0
20260502194120 44 309 0.0 0.0 0.00 0.43 0.43 62 1017.0
20260502193110 45 333 0.0 0.0 0.00 0.43 0.43 61 1017.1
20260502192114 46 300 0.0 0.0 0.00 0.43 0.43 59 1017.1
20260502191133 48 321 0.0 0.0 0.00 0.43 0.43 59 1017.1
20260502190215 48 290 0.0 0.0 0.00 0.43 0.43 60 1017.1
20260502185114 47 273 0.0 0.0 0.00 0.44 0.43 61 1017.3
20260502184116 47 317 0.0 0.0 0.00 0.44 0.43 62 1017.3
20260502182107 48 300 0.0 0.0 0.00 0.44 0.43 62 1017.4
20260502181113 47 339 0.0 0.0 0.00 0.44 0.43 61 1017.4